Flag for U.S.A. Weather past 2 weeks in Brockton, Massachusetts, U.S.A.

Now
44 °F

Quite cool.


Feels Like: 36 °F
Forecast: 40 / 57 °F
Wind: 20 mph from Northwest

Location: East Milton


UV Index: 5 (Moderate)

Visibility: N/A


Pressure: 29.62 "Hg

Humidity: 63%

Dew point: 32 °F

Location of BrocktonLocation

Historic Weather in Brockton

°F

Brockton temperature yesterday

Maximum temperature yesterday: 51 °F (at 7:54 AM)
Minimum temperature yesterday: 45 °F (at 10:54 PM)
Average temperature yesterday: 48 °F

Past Weeks' High & Low Weather Summary

 TemperatureHumidityPressure
High72 °F (Apr 14, 12:54 PM)100% (Apr 15, 6:54 AM)30.81 "Hg (Apr 15, 6:54 AM)
Low28 °F (Apr 16, 7:54 AM)21% (Apr 9, 5:54 PM)29.44 "Hg (Apr 23, 7:54 AM)
Average48 °F62%30.08 "Hg
* Reported Apr 8 10:54 PM — Apr 23 10:54 PM, Brockton, Weather by CustomWeather, © 2014

Note: Actual official high and low records may vary slightly from our data, if they occured in-between our weather recording intervals... More about our weather records

Advertising

Historic Weather Conditions — Data for Previous 24 hours

 ConditionsComfort  
Time TempWeatherWind HumidityBarometerVisibility
10:54 PM
Apr 23
45 °FCool.24 mph58%29.59 "HgN/A
9:54 PM46 °FCool.25 mph56%29.58 "HgN/A
8:54 PM47 °FCool.25 mph56%29.57 "HgN/A
7:54 PM47 °FCool.22 mph59%29.54 "HgN/A
6:54 PM47 °FCool.26 mph61%29.52 "HgN/A
5:54 PM48 °FCool.24 mph59%29.50 "HgN/A
4:54 PM49 °FCool.29 mph61%29.46 "HgN/A
3:54 PM48 °FCool.14 mph80%29.46 "HgN/A
2:54 PM46 °FCool.15 mph89%29.46 "HgN/A
1:54 PM47 °FCool.15 mph93%29.45 "HgN/A
12:54 PM48 °FCool.15 mph93%29.45 "HgN/A
11:54 AM48 °FCool.13 mph96%29.44 "HgN/A
10:54 AM48 °FCool.17 mph96%29.45 "HgN/A
9:54 AM48 °FCool.14 mph96%29.46 "HgN/A
8:54 AM49 °FCool.8 mph97%29.48 "HgN/A
7:54 AM51 °FCool.13 mph92%29.44 "HgN/A
6:54 AM50 °FCool.13 mph96%29.47 "HgN/A
5:54 AM50 °FCool.9 mph96%29.45 "HgN/A
4:54 AM50 °FCool.7 mph96%29.45 "HgN/A
3:54 AM50 °FCool.9 mph96%29.45 "HgN/A
2:54 AM50 °FCool.9 mph96%29.46 "HgN/A
1:54 AM50 °FCool.12 mph96%29.47 "HgN/A
12:54 AM50 °FCool.10 mph100%29.48 "HgN/A
Weather by CustomWeather, © 2014

See weather overview